Time,TemperatureF,DewpointF,PressureIn,WindDirection,WindDirectionDegrees,WindSpeedMPH,WindSpeedGustMPH,Humidity,HourlyPrecipIn,Conditions,Clouds,dailyrainin,SoftwareType,DateUTC
2013-10-13 00:02:00,41.7,40.1,30.09,ENE,68,0.0,0.9,94,0.00,,,0.00,VWS V13.01,2013-10-13 07:02:00,
2013-10-13 00:07:00,41.5,40.0,30.09,East,90,0.0,0.0,94,0.00,,,0.00,VWS V13.01,2013-10-13 07:07:00,
2013-10-13 00:12:00,41.4,39.8,30.09,SSE,158,0.0,1.1,94,0.00,,,0.00,VWS V13.01,2013-10-13 07:12:00,
2013-10-13 00:17:00,41.2,39.6,30.09,ENE,68,1.1,2.0,94,0.00,,,0.00,VWS V13.01,2013-10-13 07:17:00,
2013-10-13 00:22:00,41.2,39.6,30.09,ENE,68,0.0,0.0,94,0.00,,,0.00,VWS V13.01,2013-10-13 07:22:00,
2013-10-13 00:27:00,41.0,39.4,30.09,East,90,0.0,0.0,94,0.00,,,0.00,VWS V13.01,2013-10-13 07:27:00,
2013-10-13 00:32:00,41.2,39.6,30.09,East,90,1.3,1.3,94,0.00,,,0.00,VWS V13.01,2013-10-13 07:32:00,
2013-10-13 00:37:00,40.8,39.5,30.09,East,90,0.0,1.6,95,0.00,,,0.00,VWS V13.01,2013-10-13 07:37:00,
2013-10-13 00:42:00,40.6,39.3,30.09,East,90,0.0,0.0,95,0.00,,,0.00,VWS V13.01,2013-10-13 07:42:00,
2013-10-13 00:47:00,40.5,39.1,30.09,East,90,0.0,0.0,95,0.00,,,0.00,VWS V13.01,2013-10-13 07:47:00,
2013-10-13 00:52:00,40.5,39.1,30.09,East,90,0.0,0.0,95,0.00,,,0.00,VWS V13.01,2013-10-13 07:52:00,
2013-10-13 00:57:00,40.6,39.6,30.09,East,90,0.0,0.0,96,0.00,,,0.00,VWS V13.01,2013-10-13 07:57:00,
2013-10-13 01:02:00,40.5,39.4,30.12,ENE,68,0.0,0.0,96,0.00,,,0.00,VWS V13.01,2013-10-13 08:02:00,
2013-10-13 01:07:00,40.3,39.0,30.12,East,90,0.0,0.0,95,0.00,,,0.00,VWS V13.01,2013-10-13 08:07:00,
2013-10-13 01:12:00,39.9,38.6,30.12,ESE,112,0.0,0.0,95,0.00,,,0.00,VWS V13.01,2013-10-13 08:12:00,
2013-10-13 01:17:00,39.9,38.6,30.09,ENE,68,0.0,1.1,95,0.00,,,0.00,VWS V13.01,2013-10-13 08:17:00,
2013-10-13 01:22:00,39.9,38.6,30.09,ENE,68,0.0,0.0,95,0.00,,,0.00,VWS V13.01,2013-10-13 08:22:00,
2013-10-13 01:27:00,39.9,38.9,30.09,ENE,68,0.0,0.0,96,0.00,,,0.00,VWS V13.01,2013-10-13 08:27:00,
2013-10-13 01:32:00,39.9,38.9,30.12,ENE,68,0.9,0.9,96,0.00,,,0.00,VWS V13.01,2013-10-13 08:32:00,
2013-10-13 01:37:00,39.9,38.9,30.12,ENE,68,0.0,0.0,96,0.00,,,0.00,VWS V13.01,2013-10-13 08:37:00,
2013-10-13 01:43:00,39.7,38.4,30.12,East,90,0.0,0.0,95,0.00,,,0.00,VWS V13.01,2013-10-13 08:43:00,
2013-10-13 01:48:00,39.6,38.2,30.12,ENE,68,0.0,0.0,95,0.00,,,0.00,VWS V13.01,2013-10-13 08:48:00,
2013-10-13 01:53:00,39.6,38.2,30.12,East,90,0.0,0.0,95,0.00,,,0.00,VWS V13.01,2013-10-13 08:53:00,
2013-10-13 01:58:00,39.7,38.7,30.12,ENE,68,0.0,0.0,96,0.00,,,0.00,VWS V13.01,2013-10-13 08:58:00,
2013-10-13 02:03:00,39.9,38.9,30.12,East,90,0.0,0.0,96,0.00,,,0.00,VWS V13.01,2013-10-13 09:03:00,
2013-10-13 02:08:00,39.9,38.9,30.12,NE,45,0.0,0.0,96,0.00,,,0.00,VWS V13.01,2013-10-13 09:08:00,
2013-10-13 02:13:00,39.9,38.9,30.12,East,90,0.0,0.0,96,0.00,,,0.00,VWS V13.01,2013-10-13 09:13:00,
2013-10-13 02:18:00,39.9,38.9,30.12,ENE,68,0.0,0.0,96,0.00,,,0.00,VWS V13.01,2013-10-13 09:18:00,
2013-10-13 02:23:00,40.3,39.2,30.12,East,90,0.0,0.0,96,0.00,,,0.00,VWS V13.01,2013-10-13 09:23:00,
2013-10-13 02:28:00,40.5,39.7,30.12,East,90,0.0,0.0,97,0.00,,,0.00,VWS V13.01,2013-10-13 09:28:00,
2013-10-13 02:33:00,40.6,39.9,30.12,ENE,68,0.0,0.0,97,0.00,,,0.00,VWS V13.01,2013-10-13 09:33:00,
2013-10-13 02:38:00,40.8,40.0,30.12,ENE,68,0.0,0.0,97,0.00,,,0.00,VWS V13.01,2013-10-13 09:38:00,
2013-10-13 02:43:00,41.0,40.2,30.12,ENE,68,0.0,0.0,97,0.00,,,0.00,VWS V13.01,2013-10-13 09:43:00,
2013-10-13 02:48:00,41.2,40.4,30.12,ENE,68,0.0,0.0,97,0.00,,,0.00,VWS V13.01,2013-10-13 09:48:00,
2013-10-13 02:53:00,41.5,40.8,30.12,ENE,68,0.0,0.0,97,0.00,,,0.00,VWS V13.01,2013-10-13 09:53:00,
2013-10-13 02:58:00,41.9,41.4,30.12,ENE,68,0.0,0.0,98,0.00,,,0.00,VWS V13.01,2013-10-13 09:58:00,
2013-10-13 03:03:00,42.4,41.9,30.12,ENE,68,0.0,0.0,98,0.00,,,0.00,VWS V13.01,2013-10-13 10:03:00,
2013-10-13 03:08:00,42.4,41.9,30.12,ENE,68,0.0,0.0,98,0.00,,,0.00,VWS V13.01,2013-10-13 10:08:00,
2013-10-13 03:13:00,42.4,41.9,30.12,ENE,68,0.0,0.0,98,0.00,,,0.00,VWS V13.01,2013-10-13 10:13:00,
2013-10-13 03:18:00,42.8,42.3,30.12,NE,45,0.0,0.0,98,0.00,,,0.00,VWS V13.01,2013-10-13 10:18:00,
2013-10-13 03:23:00,43.3,42.8,30.12,NE,45,0.0,0.0,98,0.00,,,0.00,VWS V13.01,2013-10-13 10:23:00,
2013-10-13 03:28:00,43.3,42.8,30.12,North,0,3.6,3.6,98,0.00,,,0.00,VWS V13.01,2013-10-13 10:28:00,
2013-10-13 03:33:00,43.3,42.8,30.15,NNE,22,0.0,0.0,98,0.00,,,0.00,VWS V13.01,2013-10-13 10:33:00,
2013-10-13 03:38:00,43.2,42.6,30.15,NNE,22,2.2,2.2,98,0.00,,,0.00,VWS V13.01,2013-10-13 10:38:00,
2013-10-13 03:43:00,43.0,42.5,30.15,NNE,22,1.1,2.2,98,0.00,,,0.00,VWS V13.01,2013-10-13 10:43:00,
2013-10-13 03:48:00,42.8,42.3,30.15,NE,45,0.9,1.3,98,0.00,,,0.00,VWS V13.01,2013-10-13 10:48:00,
2013-10-13 03:53:00,42.6,42.1,30.15,NE,45,0.0,0.0,98,0.00,,,0.00,VWS V13.01,2013-10-13 10:53:00,
2013-10-13 03:58:00,42.6,42.1,30.15,ENE,68,1.6,1.6,98,0.00,,,0.00,VWS V13.01,2013-10-13 10:58:00,
2013-10-13 04:03:00,42.4,41.9,30.15,NE,45,1.3,1.3,98,0.00,,,0.00,VWS V13.01,2013-10-13 11:03:00,
2013-10-13 04:08:00,42.3,41.7,30.15,NE,45,0.0,0.0,98,0.00,,,0.00,VWS V13.01,2013-10-13 11:08:00,
2013-10-13 04:13:00,42.1,41.6,30.15,ENE,68,0.0,0.0,98,0.00,,,0.00,VWS V13.01,2013-10-13 11:13:00,
2013-10-13 04:18:00,42.1,41.3,30.15,ENE,68,0.0,0.0,97,0.00,,,0.00,VWS V13.01,2013-10-13 11:18:00,
2013-10-13 04:23:00,41.9,41.4,30.15,ENE,68,0.0,0.0,98,0.00,,,0.00,VWS V13.01,2013-10-13 11:23:00,
2013-10-13 04:28:00,41.9,41.4,30.15,ENE,68,0.0,0.0,98,0.00,,,0.00,VWS V13.01,2013-10-13 11:28:00,
2013-10-13 04:33:00,41.9,41.4,30.15,NE,45,0.0,0.0,98,0.00,,,0.00,VWS V13.01,2013-10-13 11:33:00,
2013-10-13 04:38:00,41.9,41.4,30.15,NE,45,0.0,0.0,98,0.00,,,0.00,VWS V13.01,2013-10-13 11:38:00,
2013-10-13 04:43:00,42.1,41.6,30.15,NNE,22,0.0,0.0,98,0.00,,,0.00,VWS V13.01,2013-10-13 11:43:00,
2013-10-13 04:49:00,41.9,41.4,30.15,NNE,22,0.0,0.0,98,0.00,,,0.00,VWS V13.01,2013-10-13 11:49:00,
2013-10-13 04:54:00,41.9,41.4,30.15,NNE,22,0.0,0.0,98,0.00,,,0.00,VWS V13.01,2013-10-13 11:54:00,
2013-10-13 04:59:00,41.7,41.2,30.15,NNE,22,0.0,0.0,98,0.00,,,0.00,VWS V13.01,2013-10-13 11:59:00,
2013-10-13 05:04:00,41.7,41.2,30.15,NNE,22,0.0,0.0,98,0.00,,,0.00,VWS V13.01,2013-10-13 12:04:00,
2013-10-13 05:09:00,41.7,41.2,30.15,East,90,0.0,0.0,98,0.00,,,0.00,VWS V13.01,2013-10-13 12:09:00,
2013-10-13 05:14:00,41.5,41.0,30.15,ENE,68,0.0,0.0,98,0.00,,,0.00,VWS V13.01,2013-10-13 12:14:00,
2013-10-13 05:19:00,41.5,41.0,30.15,NE,45,0.0,0.0,98,0.00,,,0.00,VWS V13.01,2013-10-13 12:19:00,
2013-10-13 05:24:00,41.4,40.8,30.15,NE,45,0.0,0.0,98,0.00,,,0.00,VWS V13.01,2013-10-13 12:24:00,
2013-10-13 05:29:00,41.2,40.7,30.15,NE,45,0.0,0.0,98,0.00,,,0.00,VWS V13.01,2013-10-13 12:29:00,
2013-10-13 05:34:00,41.0,40.5,30.15,ENE,68,0.0,0.0,98,0.00,,,0.00,VWS V13.01,2013-10-13 12:34:00,
2013-10-13 05:39:00,41.0,40.5,30.15,NE,45,0.0,0.0,98,0.00,,,0.00,VWS V13.01,2013-10-13 12:39:00,
2013-10-13 05:44:00,40.8,40.3,30.15,NE,45,0.0,0.0,98,0.00,,,0.00,VWS V13.01,2013-10-13 12:44:00,
2013-10-13 05:49:00,40.8,40.3,30.15,NE,45,0.0,0.0,98,0.00,,,0.00,VWS V13.01,2013-10-13 12:49:00,
2013-10-13 05:54:00,40.5,39.9,30.15,NE,45,0.0,0.0,98,0.00,,,0.00,VWS V13.01,2013-10-13 12:54:00,
2013-10-13 05:59:00,40.1,39.3,30.15,NE,45,0.0,0.0,97,0.00,,,0.00,VWS V13.01,2013-10-13 12:59:00,
2013-10-13 06:04:00,39.7,39.0,30.18,East,90,0.0,0.0,97,0.00,,,0.00,VWS V13.01,2013-10-13 13:04:00,
2013-10-13 06:09:00,39.7,39.0,30.18,East,90,0.0,0.0,97,0.00,,,0.00,VWS V13.01,2013-10-13 13:09:00,
2013-10-13 06:14:00,39.6,38.8,30.18,East,90,0.0,0.0,97,0.00,,,0.00,VWS V13.01,2013-10-13 13:14:00,
2013-10-13 06:19:00,39.6,38.8,30.18,East,90,0.0,0.0,97,0.00,,,0.00,VWS V13.01,2013-10-13 13:19:00,
2013-10-13 06:24:00,39.6,39.0,30.18,East,90,0.0,0.0,98,0.00,,,0.00,VWS V13.01,2013-10-13 13:24:00,
2013-10-13 06:29:00,39.6,39.0,30.18,ENE,68,0.0,0.0,98,0.00,,,0.00,VWS V13.01,2013-10-13 13:29:00,
2013-10-13 06:34:00,39.4,38.9,30.15,ENE,68,0.0,0.0,98,0.00,,,0.00,VWS V13.01,2013-10-13 13:34:00,
2013-10-13 06:39:00,39.2,38.4,30.15,ENE,68,0.0,0.0,97,0.00,,,0.00,VWS V13.01,2013-10-13 13:39:00,
2013-10-13 06:44:00,39.0,38.5,30.15,East,90,0.0,0.0,98,0.00,,,0.00,VWS V13.01,2013-10-13 13:44:00,
2013-10-13 06:49:00,38.8,38.3,30.15,East,90,0.0,0.0,98,0.00,,,0.00,VWS V13.01,2013-10-13 13:49:00,
2013-10-13 06:54:00,38.5,37.7,30.15,East,90,0.0,0.0,97,0.00,,,0.00,VWS V13.01,2013-10-13 13:54:00,
2013-10-13 06:59:00,38.3,37.5,30.15,East,90,0.0,0.0,97,0.00,,,0.00,VWS V13.01,2013-10-13 13:59:00,
2013-10-13 07:04:00,38.1,37.3,30.18,East,90,0.0,0.0,97,0.00,,,0.00,VWS V13.01,2013-10-13 14:04:00,
2013-10-13 07:09:00,38.1,37.3,30.18,East,90,0.0,0.0,97,0.00,,,0.00,VWS V13.01,2013-10-13 14:09:00,
2013-10-13 07:14:00,37.9,37.2,30.18,East,90,0.0,0.0,97,0.00,,,0.00,VWS V13.01,2013-10-13 14:14:00,
2013-10-13 07:19:00,37.8,37.0,30.15,ENE,68,0.0,0.0,97,0.00,,,0.00,VWS V13.01,2013-10-13 14:19:00,
2013-10-13 07:24:00,37.6,36.8,30.15,ENE,68,0.0,0.0,97,0.00,,,0.00,VWS V13.01,2013-10-13 14:24:00,
2013-10-13 07:29:00,37.6,36.8,30.15,ENE,68,0.0,0.0,97,0.00,,,0.00,VWS V13.01,2013-10-13 14:29:00,
2013-10-13 07:34:00,37.6,36.8,30.18,East,90,0.0,0.0,97,0.00,,,0.00,VWS V13.01,2013-10-13 14:34:00,
2013-10-13 07:39:00,37.6,37.1,30.18,East,90,0.0,0.0,98,0.00,,,0.00,VWS V13.01,2013-10-13 14:39:00,
2013-10-13 07:44:00,37.8,37.2,30.18,East,90,0.0,0.0,98,0.00,,,0.00,VWS V13.01,2013-10-13 14:44:00,
2013-10-13 07:50:00,37.8,37.2,30.18,East,90,0.0,0.0,98,0.00,,,0.00,VWS V13.01,2013-10-13 14:50:00,
2013-10-13 07:55:00,37.6,37.1,30.18,East,90,0.0,0.0,98,0.00,,,0.00,VWS V13.01,2013-10-13 14:55:00,
2013-10-13 08:00:00,37.6,37.1,30.18,East,90,0.0,0.0,98,0.00,,,0.00,VWS V13.01,2013-10-13 15:00:00,
2013-10-13 08:05:00,37.6,37.1,30.18,East,90,0.0,0.0,98,0.00,,,0.00,VWS V13.01,2013-10-13 15:05:00,
2013-10-13 08:10:00,37.8,37.2,30.18,East,90,0.0,0.0,98,0.00,,,0.00,VWS V13.01,2013-10-13 15:10:00,
2013-10-13 08:15:00,37.9,37.4,30.18,East,90,0.0,0.0,98,0.00,,,0.00,VWS V13.01,2013-10-13 15:15:00,
2013-10-13 08:20:00,37.9,37.4,30.18,East,90,0.0,1.1,98,0.00,,,0.00,VWS V13.01,2013-10-13 15:20:00,
2013-10-13 08:25:00,38.1,37.6,30.18,East,90,0.0,0.0,98,0.00,,,0.00,VWS V13.01,2013-10-13 15:25:00,
2013-10-13 08:30:00,38.1,37.6,30.18,East,90,0.0,0.0,98,0.00,,,0.00,VWS V13.01,2013-10-13 15:30:00,
2013-10-13 08:35:00,38.3,37.8,30.18,East,90,0.0,0.0,98,0.00,,,0.00,VWS V13.01,2013-10-13 15:35:00,
2013-10-13 08:40:00,38.5,38.0,30.18,East,90,0.0,0.0,98,0.00,,,0.00,VWS V13.01,2013-10-13 15:40:00,
2013-10-13 08:45:00,38.8,38.3,30.18,East,90,0.0,0.0,98,0.00,,,0.00,VWS V13.01,2013-10-13 15:45:00,
2013-10-13 08:50:00,39.2,38.7,30.18,ENE,68,0.0,0.0,98,0.00,,,0.00,VWS V13.01,2013-10-13 15:50:00,
2013-10-13 08:55:00,39.4,38.9,30.18,East,90,0.0,0.0,98,0.00,,,0.00,VWS V13.01,2013-10-13 15:55:00,
2013-10-13 09:00:00,39.9,39.4,30.18,East,90,0.0,0.0,98,0.00,,,0.00,VWS V13.01,2013-10-13 16:00:00,
2013-10-13 09:05:00,40.1,39.6,30.18,East,90,0.0,0.0,98,0.00,,,0.00,VWS V13.01,2013-10-13 16:05:00,
2013-10-13 09:10:00,40.5,39.9,30.18,East,90,0.0,0.0,98,0.00,,,0.00,VWS V13.01,2013-10-13 16:10:00,
2013-10-13 09:15:00,41.2,40.7,30.18,ENE,68,0.0,0.0,98,0.00,,,0.00,VWS V13.01,2013-10-13 16:15:00,
2013-10-13 09:20:00,41.7,41.2,30.21,ENE,68,0.0,0.0,98,0.00,,,0.00,VWS V13.01,2013-10-13 16:20:00,
2013-10-13 09:25:00,42.3,41.7,30.21,ENE,68,0.0,0.0,98,0.00,,,0.00,VWS V13.01,2013-10-13 16:25:00,
2013-10-13 09:30:00,42.6,42.1,30.21,ENE,68,0.0,0.0,98,0.00,,,0.00,VWS V13.01,2013-10-13 16:30:00,
2013-10-13 09:35:00,43.0,42.5,30.21,ENE,68,0.0,0.0,98,0.00,,,0.00,VWS V13.01,2013-10-13 16:35:00,
2013-10-13 09:40:00,43.5,43.0,30.21,NE,45,1.6,3.1,98,0.00,,,0.00,VWS V13.01,2013-10-13 16:40:00,
2013-10-13 09:45:00,43.9,43.3,30.21,East,90,0.0,0.0,98,0.00,,,0.00,VWS V13.01,2013-10-13 16:45:00,
2013-10-13 09:50:00,44.2,43.7,30.21,SE,135,0.0,0.0,98,0.00,,,0.00,VWS V13.01,2013-10-13 16:50:00,
2013-10-13 09:55:00,44.4,43.9,30.21,NE,45,0.0,1.1,98,0.00,,,0.00,VWS V13.01,2013-10-13 16:55:00,
2013-10-13 10:00:00,44.4,43.9,30.21,North,0,0.0,1.1,98,0.00,,,0.00,VWS V13.01,2013-10-13 17:00:00,
2013-10-13 10:06:00,44.8,44.2,30.21,NE,45,1.3,1.3,98,0.00,,,0.00,VWS V13.01,2013-10-13 17:06:00,
2013-10-13 10:11:00,45.1,44.6,30.21,NE,45,0.0,2.2,98,0.00,,,0.00,VWS V13.01,2013-10-13 17:11:00,
2013-10-13 10:16:00,45.3,44.8,30.21,NW,315,1.6,2.9,98,0.00,,,0.00,VWS V13.01,2013-10-13 17:16:00,
2013-10-13 10:21:00,45.7,45.2,30.21,North,0,2.7,3.4,98,0.00,,,0.00,VWS V13.01,2013-10-13 17:21:00,
2013-10-13 10:26:00,46.2,45.4,30.21,NNE,22,2.0,2.9,97,0.00,,,0.00,VWS V13.01,2013-10-13 17:26:00,
2013-10-13 10:31:00,46.6,45.8,30.21,NNW,338,0.0,0.9,97,0.00,,,0.00,VWS V13.01,2013-10-13 17:31:00,
2013-10-13 10:36:00,46.9,46.1,30.21,NNW,338,2.0,2.2,97,0.00,,,0.00,VWS V13.01,2013-10-13 17:36:00,
2013-10-13 10:41:00,47.3,46.5,30.21,NW,315,2.0,3.1,97,0.00,,,0.00,VWS V13.01,2013-10-13 17:41:00,
2013-10-13 10:46:00,48.4,47.3,30.21,NNW,338,3.1,3.1,96,0.00,,,0.00,VWS V13.01,2013-10-13 17:46:00,
2013-10-13 10:51:00,49.5,47.5,30.21,NNW,338,3.1,3.1,93,0.00,,,0.00,VWS V13.01,2013-10-13 17:51:00,
2013-10-13 10:56:00,50.2,44.3,30.21,NW,315,2.5,2.5,80,0.00,,,0.00,VWS V13.01,2013-10-13 17:56:00,
2013-10-13 11:01:00,50.9,44.6,30.21,South,180,1.3,1.3,79,0.00,,,0.00,VWS V13.01,2013-10-13 18:01:00,
2013-10-13 11:06:00,52.3,46.0,30.21,SSE,158,1.1,1.3,79,0.00,,,0.00,VWS V13.01,2013-10-13 18:06:00,
2013-10-13 11:12:00,52.7,42.8,30.21,NNE,22,2.5,3.1,69,0.00,,,0.00,VWS V13.01,2013-10-13 18:12:00,
2013-10-13 11:17:00,53.6,44.1,30.21,NNE,22,2.2,2.5,70,0.00,,,0.00,VWS V13.01,2013-10-13 18:17:00,
2013-10-13 11:22:00,54.5,44.9,30.21,North,0,0.0,0.0,70,0.00,,,0.00,VWS V13.01,2013-10-13 18:22:00,
2013-10-13 11:27:00,55.4,43.4,30.21,North,0,1.3,1.3,64,0.00,,,0.00,VWS V13.01,2013-10-13 18:27:00,
2013-10-13 11:32:00,55.9,44.0,30.21,NW,315,2.0,2.5,64,0.00,,,0.00,VWS V13.01,2013-10-13 18:32:00,
2013-10-13 11:37:00,55.6,39.2,30.21,WNW,292,2.5,2.5,54,0.00,,,0.00,VWS V13.01,2013-10-13 18:37:00,
2013-10-13 11:42:00,55.4,39.5,30.21,North,0,3.4,3.4,55,0.00,,,0.00,VWS V13.01,2013-10-13 18:42:00,
2013-10-13 11:47:00,55.9,40.5,30.21,NNE,22,2.7,2.7,56,0.00,,,0.00,VWS V13.01,2013-10-13 18:47:00,
2013-10-13 11:53:00,56.3,42.2,30.21,NNE,22,0.0,1.6,59,0.00,,,0.00,VWS V13.01,2013-10-13 18:53:00,
2013-10-13 11:58:00,57.9,44.6,30.21,SE,135,0.0,0.0,61,0.00,,,0.00,VWS V13.01,2013-10-13 18:58:00,
2013-10-13 12:03:00,59.0,44.3,30.21,West,270,1.3,2.5,58,0.00,,SCT002,0.00,VWS V13.01,2013-10-13 19:03:00,
2013-10-13 12:08:00,59.4,42.2,30.21,SW,225,0.0,1.6,53,0.00,,SCT002,0.00,VWS V13.01,2013-10-13 19:08:00,
2013-10-13 12:13:00,59.5,39.8,30.21,WNW,292,2.5,2.5,48,0.00,,SCT002,0.00,VWS V13.01,2013-10-13 19:13:00,
2013-10-13 12:18:00,59.4,38.6,30.21,West,270,3.4,3.4,46,0.00,,SCT002,0.00,VWS V13.01,2013-10-13 19:18:00,
2013-10-13 12:23:00,58.5,38.9,30.21,NW,315,3.1,4.0,48,0.00,,SCT002,0.00,VWS V13.01,2013-10-13 19:23:00,
2013-10-13 12:28:00,58.3,38.2,30.21,WNW,292,2.0,4.0,47,0.00,,SCT002,0.00,VWS V13.01,2013-10-13 19:28:00,
2013-10-13 12:33:00,57.6,38.0,30.21,NW,315,5.4,5.6,48,0.00,,SCT002,0.00,VWS V13.01,2013-10-13 19:33:00,
2013-10-13 12:38:00,56.3,38.9,30.21,West,270,7.8,7.8,52,0.00,,SCT002,0.00,VWS V13.01,2013-10-13 19:38:00,
2013-10-13 12:43:00,55.0,38.7,30.21,West,270,7.6,7.6,54,0.00,,SCT002,0.00,VWS V13.01,2013-10-13 19:43:00,
2013-10-13 12:48:00,54.5,40.0,30.21,WSW,248,6.0,6.3,58,0.00,,SCT002,0.00,VWS V13.01,2013-10-13 19:48:00,
2013-10-13 12:53:00,54.5,39.1,30.21,West,270,5.8,5.8,56,0.00,,SCT002,0.00,VWS V13.01,2013-10-13 19:53:00,
2013-10-13 12:58:00,54.9,39.0,30.21,SSW,202,3.6,4.0,55,0.00,,SCT002,0.00,VWS V13.01,2013-10-13 19:58:00,
2013-10-13 13:03:00,55.2,38.4,30.24,WSW,248,4.9,4.9,53,0.00,,SCT002,0.00,VWS V13.01,2013-10-13 20:03:00,
2013-10-13 13:08:00,55.2,37.9,30.24,WSW,248,4.9,4.9,52,0.00,,SCT002,0.00,VWS V13.01,2013-10-13 20:08:00,
2013-10-13 13:13:00,55.2,38.4,30.24,WSW,248,4.9,5.4,53,0.00,,SCT002,0.00,VWS V13.01,2013-10-13 20:13:00,
2013-10-13 13:18:00,55.2,38.4,30.24,West,270,5.6,5.6,53,0.00,,SCT002,0.00,VWS V13.01,2013-10-13 20:18:00,
2013-10-13 13:23:00,55.0,39.2,30.24,West,270,2.7,5.4,55,0.00,,SCT002,0.00,VWS V13.01,2013-10-13 20:23:00,
2013-10-13 13:28:00,55.2,38.9,30.24,WSW,248,4.7,5.6,54,0.00,,SCT002,0.00,VWS V13.01,2013-10-13 20:28:00,
2013-10-13 13:33:00,55.2,39.8,30.24,WSW,248,5.4,5.8,56,0.00,,SCT002,0.00,VWS V13.01,2013-10-13 20:33:00,
2013-10-13 13:38:00,55.4,40.0,30.24,West,270,2.5,5.4,56,0.00,,SCT002,0.00,VWS V13.01,2013-10-13 20:38:00,
2013-10-13 13:43:00,55.4,40.9,30.24,West,270,4.3,6.5,58,0.00,,SCT002,0.00,VWS V13.01,2013-10-13 20:43:00,
2013-10-13 13:49:00,55.2,39.8,30.24,West,270,5.8,5.8,56,0.00,,SCT002,0.00,VWS V13.01,2013-10-13 20:49:00,
2013-10-13 13:54:00,55.4,40.9,30.24,West,270,5.4,6.0,58,0.00,,SCT002,0.00,VWS V13.01,2013-10-13 20:54:00,
2013-10-13 13:59:00,55.4,42.2,30.24,West,270,4.9,4.9,61,0.00,,SCT002,0.00,VWS V13.01,2013-10-13 20:59:00,
2013-10-13 14:04:00,55.6,43.2,30.27,WSW,248,6.5,6.5,63,0.00,,SCT002,0.00,VWS V13.01,2013-10-13 21:04:00,
2013-10-13 14:09:00,55.6,43.6,30.27,WSW,248,3.1,5.8,64,0.00,,SCT002,0.00,VWS V13.01,2013-10-13 21:09:00,
2013-10-13 14:14:00,55.6,42.8,30.27,West,270,5.6,6.3,62,0.00,,SCT002,0.00,VWS V13.01,2013-10-13 21:14:00,
2013-10-13 14:19:00,55.4,43.4,30.30,West,270,6.3,6.3,64,0.00,,SCT002,0.00,VWS V13.01,2013-10-13 21:19:00,
2013-10-13 14:24:00,55.2,43.3,30.30,WSW,248,6.0,6.5,64,0.00,,SCT002,0.00,VWS V13.01,2013-10-13 21:24:00,
2013-10-13 14:29:00,55.0,43.1,30.30,West,270,7.6,7.6,64,0.00,,SCT002,0.00,VWS V13.01,2013-10-13 21:29:00,
2013-10-13 14:34:00,55.0,43.1,30.30,West,270,5.6,6.5,64,0.00,,SCT002,0.00,VWS V13.01,2013-10-13 21:34:00,
2013-10-13 14:39:00,55.2,43.7,30.30,West,270,5.6,5.8,65,0.00,,SCT002,0.00,VWS V13.01,2013-10-13 21:39:00,
2013-10-13 14:44:00,55.6,43.6,30.30,WNW,292,4.9,5.4,64,0.00,,SCT002,0.00,VWS V13.01,2013-10-13 21:44:00,
2013-10-13 14:49:00,55.8,44.2,30.33,WNW,292,5.6,5.8,65,0.00,,SCT002,0.00,VWS V13.01,2013-10-13 21:49:00,
2013-10-13 14:54:00,55.8,44.2,30.33,West,270,5.8,6.5,65,0.00,,SCT002,0.00,VWS V13.01,2013-10-13 21:54:00,
2013-10-13 14:59:00,55.8,43.8,30.33,WNW,292,6.3,6.9,64,0.00,,SCT002,0.00,VWS V13.01,2013-10-13 21:59:00,
2013-10-13 15:04:00,55.9,44.0,30.36,WNW,292,5.6,5.6,64,0.00,,SCT002,0.00,VWS V13.01,2013-10-13 22:04:00,
2013-10-13 15:09:00,55.9,42.7,30.36,SW,225,6.5,6.5,61,0.00,,SCT002,0.00,VWS V13.01,2013-10-13 22:09:00,
2013-10-13 15:15:00,56.1,43.7,30.36,WNW,292,5.8,6.5,63,0.00,,SCT002,0.00,VWS V13.01,2013-10-13 22:15:00,
2013-10-13 15:20:00,55.9,43.1,30.36,West,270,7.2,7.4,62,0.00,,SCT002,0.00,VWS V13.01,2013-10-13 22:20:00,
2013-10-13 15:25:00,55.8,43.4,30.36,WNW,292,6.3,6.5,63,0.00,,SCT002,0.00,VWS V13.01,2013-10-13 22:25:00,
2013-10-13 15:30:00,55.8,43.8,30.36,West,270,6.9,7.6,64,0.00,,SCT002,0.00,VWS V13.01,2013-10-13 22:30:00,
2013-10-13 15:35:00,55.6,43.6,30.36,West,270,6.7,7.4,64,0.00,,SCT002,0.00,VWS V13.01,2013-10-13 22:35:00,
2013-10-13 15:40:00,55.4,44.2,30.36,West,270,6.0,6.0,66,0.00,,SCT002,0.00,VWS V13.01,2013-10-13 22:40:00,
2013-10-13 15:45:00,55.4,43.0,30.36,WNW,292,6.5,6.5,63,0.00,,SCT002,0.00,VWS V13.01,2013-10-13 22:45:00,
2013-10-13 15:50:00,55.2,43.7,30.36,West,270,5.6,5.6,65,0.00,,SCT002,0.00,VWS V13.01,2013-10-13 22:50:00,
2013-10-13 15:55:00,55.6,44.4,30.36,WSW,248,3.8,4.0,66,0.00,,SCT002,0.00,VWS V13.01,2013-10-13 22:55:00,
2013-10-13 16:00:00,55.6,43.6,30.36,WSW,248,2.0,2.0,64,0.00,,CLR,0.00,VWS V13.01,2013-10-13 23:00:00,
2013-10-13 16:05:00,55.8,44.6,30.36,WSW,248,4.5,4.5,66,0.00,,CLR,0.00,VWS V13.01,2013-10-13 23:05:00,
2013-10-13 16:10:00,55.4,42.2,30.36,West,270,6.5,6.9,61,0.00,,CLR,0.00,VWS V13.01,2013-10-13 23:10:00,
2013-10-13 16:15:00,55.6,44.0,30.36,WSW,248,5.4,5.4,65,0.00,,CLR,0.00,VWS V13.01,2013-10-13 23:15:00,
2013-10-13 16:20:00,55.8,42.5,30.30,West,270,4.7,5.6,61,0.00,,CLR,0.00,VWS V13.01,2013-10-13 23:20:00,
2013-10-13 16:25:00,55.9,43.5,30.30,West,270,5.4,5.8,63,0.00,,CLR,0.00,VWS V13.01,2013-10-13 23:25:00,
2013-10-13 16:30:00,55.9,43.5,30.30,WNW,292,4.9,5.4,63,0.00,,CLR,0.00,VWS V13.01,2013-10-13 23:30:00,
2013-10-13 16:35:00,55.9,43.1,30.27,WSW,248,4.3,5.4,62,0.00,,CLR,0.00,VWS V13.01,2013-10-13 23:35:00,
2013-10-13 16:41:00,56.1,43.3,30.27,WNW,292,3.8,4.3,62,0.00,,CLR,0.00,VWS V13.01,2013-10-13 23:41:00,
2013-10-13 16:46:00,56.3,42.2,30.27,West,270,3.8,5.6,59,0.00,,CLR,0.00,VWS V13.01,2013-10-13 23:46:00,
2013-10-13 16:51:00,56.5,42.8,30.27,WNW,292,4.9,4.9,60,0.00,,CLR,0.00,VWS V13.01,2013-10-13 23:51:00,
2013-10-13 16:56:00,56.5,42.3,30.27,West,270,6.5,6.5,59,0.00,,CLR,0.00,VWS V13.01,2013-10-13 23:56:00,
2013-10-13 17:01:00,56.5,42.3,30.27,West,270,5.8,6.3,59,0.00,,CLR,0.00,VWS V13.01,2013-10-14 00:01:00,
2013-10-13 17:06:00,56.5,42.8,30.27,West,270,4.5,5.4,60,0.00,,CLR,0.00,VWS V13.01,2013-10-14 00:06:00,
2013-10-13 17:11:00,56.7,43.0,30.27,West,270,5.4,5.4,60,0.00,,CLR,0.00,VWS V13.01,2013-10-14 00:11:00,
2013-10-13 17:16:00,56.5,42.8,30.30,West,270,4.3,5.4,60,0.00,,CLR,0.00,VWS V13.01,2013-10-14 00:16:00,
2013-10-13 17:21:00,56.7,43.4,30.30,West,270,4.9,4.9,61,0.00,,CLR,0.00,VWS V13.01,2013-10-14 00:21:00,
2013-10-13 17:26:00,56.7,43.4,30.30,SW,225,3.4,4.3,61,0.00,,CLR,0.00,VWS V13.01,2013-10-14 00:26:00,
2013-10-13 17:31:00,57.0,43.3,30.30,West,270,2.0,4.3,60,0.00,,CLR,0.00,VWS V13.01,2013-10-14 00:31:00,
2013-10-13 17:36:00,56.8,43.1,30.30,WNW,292,2.2,3.4,60,0.00,,CLR,0.00,VWS V13.01,2013-10-14 00:36:00,
2013-10-13 17:41:00,56.3,43.0,30.30,West,270,3.6,3.6,61,0.00,,CLR,0.00,VWS V13.01,2013-10-14 00:41:00,
2013-10-13 17:46:00,55.6,43.2,30.30,WSW,248,2.2,2.7,63,0.00,,CLR,0.00,VWS V13.01,2013-10-14 00:46:00,
2013-10-13 17:51:00,55.4,43.4,30.30,West,270,2.5,2.5,64,0.00,,CLR,0.00,VWS V13.01,2013-10-14 00:51:00,
2013-10-13 17:57:00,55.6,44.0,30.30,SW,225,0.9,1.3,65,0.00,,CLR,0.00,VWS V13.01,2013-10-14 00:57:00,
2013-10-13 18:02:00,55.6,44.0,30.27,South,180,0.0,0.0,65,0.00,,CLR,0.00,VWS V13.01,2013-10-14 01:02:00,
2013-10-13 18:07:00,55.4,43.4,30.27,South,180,0.0,0.0,64,0.00,,CLR,0.00,VWS V13.01,2013-10-14 01:07:00,
2013-10-13 18:12:00,54.7,42.3,30.27,East,90,0.0,0.0,63,0.00,,CLR,0.00,VWS V13.01,2013-10-14 01:12:00,
2013-10-13 18:17:00,53.4,41.6,30.27,East,90,0.0,0.0,64,0.00,,CLR,0.00,VWS V13.01,2013-10-14 01:17:00,
2013-10-13 18:22:00,52.2,40.4,30.27,East,90,0.0,0.9,64,0.00,,CLR,0.00,VWS V13.01,2013-10-14 01:22:00,
2013-10-13 18:27:00,51.1,40.1,30.27,East,90,0.0,0.0,66,0.00,,CLR,0.00,VWS V13.01,2013-10-14 01:27:00,
2013-10-13 18:32:00,50.2,40.0,30.24,East,90,0.0,0.0,68,0.00,,CLR,0.00,VWS V13.01,2013-10-14 01:32:00,
2013-10-13 18:37:00,49.5,40.1,30.24,East,90,0.0,0.0,70,0.00,,CLR,0.00,VWS V13.01,2013-10-14 01:37:00,
2013-10-13 18:42:00,48.7,39.8,30.24,East,90,0.0,0.0,71,0.00,,CLR,0.00,VWS V13.01,2013-10-14 01:42:00,
2013-10-13 18:47:00,48.2,39.6,30.24,East,90,0.0,0.0,72,0.00,,CLR,0.00,VWS V13.01,2013-10-14 01:47:00,
2013-10-13 18:52:00,47.8,39.6,30.24,ENE,68,0.0,0.0,73,0.00,,CLR,0.00,VWS V13.01,2013-10-14 01:52:00,
2013-10-13 18:57:00,47.3,39.5,30.24,East,90,0.0,0.0,74,0.00,,CLR,0.00,VWS V13.01,2013-10-14 01:57:00,
2013-10-13 19:02:00,47.1,39.6,30.21,ENE,68,0.0,0.0,75,0.00,,CLR,0.00,VWS V13.01,2013-10-14 02:02:00,
2013-10-13 19:08:00,46.6,39.4,30.21,ENE,68,0.0,0.0,76,0.00,,CLR,0.00,VWS V13.01,2013-10-14 02:08:00,
2013-10-13 19:13:00,46.2,39.8,30.21,East,90,0.0,0.0,78,0.00,,CLR,0.00,VWS V13.01,2013-10-14 02:13:00,
2013-10-13 19:18:00,46.0,39.6,30.21,NE,45,0.0,0.0,78,0.00,,CLR,0.00,VWS V13.01,2013-10-14 02:18:00,
2013-10-13 19:23:00,45.9,40.0,30.21,ENE,68,0.0,0.0,80,0.00,,CLR,0.00,VWS V13.01,2013-10-14 02:23:00,
2013-10-13 19:28:00,45.5,40.0,30.21,East,90,0.0,0.0,81,0.00,,CLR,0.00,VWS V13.01,2013-10-14 02:28:00,
2013-10-13 19:33:00,45.3,40.2,30.21,East,90,0.0,0.0,82,0.00,,CLR,0.00,VWS V13.01,2013-10-14 02:33:00,
2013-10-13 19:38:00,45.1,40.3,30.21,SE,135,0.9,1.1,83,0.00,,CLR,0.00,VWS V13.01,2013-10-14 02:38:00,
2013-10-13 19:43:00,44.6,39.8,30.21,ENE,68,1.1,1.1,83,0.00,,CLR,0.00,VWS V13.01,2013-10-14 02:43:00,
2013-10-13 19:48:00,44.4,39.9,30.21,East,90,0.0,0.0,84,0.00,,CLR,0.00,VWS V13.01,2013-10-14 02:48:00,
2013-10-13 19:53:00,44.1,39.8,30.21,East,90,0.0,0.0,85,0.00,,CLR,0.00,VWS V13.01,2013-10-14 02:53:00,
2013-10-13 19:58:00,43.9,39.7,30.21,ENE,68,0.9,0.9,85,0.00,,CLR,0.00,VWS V13.01,2013-10-14 02:58:00,
2013-10-13 20:04:00,43.7,39.8,30.21,ENE,68,0.0,0.0,86,0.00,,CLR,0.00,VWS V13.01,2013-10-14 03:04:00,
2013-10-13 20:09:00,43.5,39.6,30.21,ENE,68,0.0,1.1,86,0.00,,CLR,0.00,VWS V13.01,2013-10-14 03:09:00,
2013-10-13 20:14:00,43.5,39.9,30.21,ENE,68,0.0,0.9,87,0.00,,CLR,0.00,VWS V13.01,2013-10-14 03:14:00,
2013-10-13 20:19:00,43.3,39.7,30.24,East,90,0.0,0.0,87,0.00,,CLR,0.00,VWS V13.01,2013-10-14 03:19:00,
2013-10-13 20:24:00,43.2,39.6,30.24,NE,45,1.1,1.3,87,0.00,,CLR,0.00,VWS V13.01,2013-10-14 03:24:00,
2013-10-13 20:29:00,43.0,39.4,30.24,ENE,68,0.0,0.0,87,0.00,,CLR,0.00,VWS V13.01,2013-10-14 03:29:00,
2013-10-13 20:34:00,42.8,39.5,30.21,NE,45,1.3,1.3,88,0.00,,CLR,0.00,VWS V13.01,2013-10-14 03:34:00,
2013-10-13 20:39:00,42.6,39.3,30.21,ENE,68,0.0,0.0,88,0.00,,CLR,0.00,VWS V13.01,2013-10-14 03:39:00,
2013-10-13 20:44:00,42.4,39.1,30.21,East,90,0.0,0.0,88,0.00,,CLR,0.00,VWS V13.01,2013-10-14 03:44:00,
2013-10-13 20:49:00,42.4,39.4,30.21,ENE,68,0.0,0.0,89,0.00,,CLR,0.00,VWS V13.01,2013-10-14 03:49:00,
2013-10-13 20:54:00,42.3,39.3,30.21,ENE,68,0.0,0.0,89,0.00,,CLR,0.00,VWS V13.01,2013-10-14 03:54:00,
2013-10-13 20:59:00,42.1,39.1,30.21,ENE,68,0.0,0.0,89,0.00,,CLR,0.00,VWS V13.01,2013-10-14 03:59:00,
2013-10-13 21:01:00,42.1,39.1,30.21,ENE,68,0.0,0.0,89,0.00,,CLR,0.00,VWS V13.01,2013-10-14 04:01:00,
2013-10-13 21:02:00,42.1,39.1,30.21,East,90,0.0,0.0,89,0.00,,CLR,0.00,VWS V13.01,2013-10-14 04:02:00,
2013-10-13 21:03:00,41.9,38.9,30.21,East,90,0.0,0.0,89,0.00,,CLR,0.00,VWS V13.01,2013-10-14 04:03:00,
2013-10-13 21:04:00,41.9,38.9,30.21,ENE,68,0.0,0.0,89,0.00,,CLR,0.00,VWS V13.01,2013-10-14 04:04:00,
2013-10-13 21:05:00,41.9,38.9,30.21,SE,135,0.0,0.0,89,0.00,,CLR,0.00,VWS V13.01,2013-10-14 04:05:00,
2013-10-13 21:10:00,41.7,39.0,30.21,ENE,68,0.0,0.0,90,0.00,,CLR,0.00,VWS V13.01,2013-10-14 04:10:00,
2013-10-13 21:15:00,41.7,39.0,30.21,ENE,68,0.0,0.0,90,0.00,,CLR,0.00,VWS V13.01,2013-10-14 04:15:00,
2013-10-13 21:20:00,41.7,39.0,30.24,ENE,68,0.0,0.0,90,0.00,,CLR,0.00,VWS V13.01,2013-10-14 04:20:00,
2013-10-13 21:25:00,41.5,38.8,30.24,East,90,0.0,0.0,90,0.00,,CLR,0.00,VWS V13.01,2013-10-14 04:25:00,
2013-10-13 21:30:00,41.5,39.1,30.24,ENE,68,0.0,0.0,91,0.00,,CLR,0.00,VWS V13.01,2013-10-14 04:30:00,
2013-10-13 21:36:00,41.5,39.1,30.24,ENE,68,0.0,0.0,91,0.00,,CLR,0.00,VWS V13.01,2013-10-14 04:36:00,
2013-10-13 21:41:00,41.5,39.1,30.24,East,90,0.0,0.0,91,0.00,,CLR,0.00,VWS V13.01,2013-10-14 04:41:00,
2013-10-13 21:46:00,41.5,39.1,30.24,ENE,68,0.0,0.0,91,0.00,,CLR,0.00,VWS V13.01,2013-10-14 04:46:00,
2013-10-13 21:51:00,41.2,39.0,30.24,East,90,0.0,0.0,92,0.00,,CLR,0.00,VWS V13.01,2013-10-14 04:51:00,
2013-10-13 21:56:00,41.2,39.0,30.24,East,90,0.0,0.0,92,0.00,,CLR,0.00,VWS V13.01,2013-10-14 04:56:00,
2013-10-13 22:01:00,41.2,39.0,30.24,ENE,68,0.0,0.0,92,0.00,,CLR,0.00,VWS V13.01,2013-10-14 05:01:00,
2013-10-13 22:06:00,41.2,39.3,30.24,ENE,68,0.0,0.0,93,0.00,,CLR,0.00,VWS V13.01,2013-10-14 05:06:00,
2013-10-13 22:11:00,41.2,39.0,30.24,East,90,0.0,0.0,92,0.00,,CLR,0.00,VWS V13.01,2013-10-14 05:11:00,
2013-10-13 22:16:00,41.0,38.9,30.24,East,90,0.0,0.0,92,0.00,,CLR,0.00,VWS V13.01,2013-10-14 05:16:00,
2013-10-13 22:21:00,40.8,39.0,30.24,East,90,0.0,0.0,93,0.00,,CLR,0.00,VWS V13.01,2013-10-14 05:21:00,
2013-10-13 22:26:00,40.6,38.8,30.24,East,90,0.0,0.0,93,0.00,,CLR,0.00,VWS V13.01,2013-10-14 05:26:00,
2013-10-13 22:31:00,40.6,38.8,30.21,SSE,158,0.0,0.0,93,0.00,,CLR,0.00,VWS V13.01,2013-10-14 05:31:00,
2013-10-13 22:36:00,40.6,38.8,30.21,East,90,0.0,0.0,93,0.00,,CLR,0.00,VWS V13.01,2013-10-14 05:36:00,
2013-10-13 22:41:00,40.5,38.6,30.21,East,90,0.0,0.0,93,0.00,,CLR,0.00,VWS V13.01,2013-10-14 05:41:00,
2013-10-13 22:47:00,40.3,38.4,30.24,ENE,68,0.0,0.0,93,0.00,,CLR,0.00,VWS V13.01,2013-10-14 05:47:00,
2013-10-13 22:52:00,40.1,38.5,30.24,East,90,0.0,0.0,94,0.00,,CLR,0.00,VWS V13.01,2013-10-14 05:52:00,
2013-10-13 22:57:00,39.9,38.3,30.24,ENE,68,0.0,0.0,94,0.00,,CLR,0.00,VWS V13.01,2013-10-14 05:57:00,
2013-10-13 23:02:00,39.9,38.3,30.24,ENE,68,0.0,0.0,94,0.00,,CLR,0.00,VWS V13.01,2013-10-14 06:02:00,
2013-10-13 23:07:00,39.7,38.2,30.24,East,90,0.0,0.0,94,0.00,,CLR,0.00,VWS V13.01,2013-10-14 06:07:00,
2013-10-13 23:12:00,39.7,38.2,30.24,East,90,0.0,0.0,94,0.00,,CLR,0.00,VWS V13.01,2013-10-14 06:12:00,
2013-10-13 23:17:00,39.7,38.2,30.24,East,90,0.0,0.0,94,0.00,,CLR,0.00,VWS V13.01,2013-10-14 06:17:00,
2013-10-13 23:22:00,39.7,38.2,30.24,East,90,0.0,0.0,94,0.00,,CLR,0.00,VWS V13.01,2013-10-14 06:22:00,
2013-10-13 23:27:00,39.6,38.0,30.24,East,90,0.0,0.0,94,0.00,,CLR,0.00,VWS V13.01,2013-10-14 06:27:00,
2013-10-13 23:32:00,39.4,37.8,30.24,East,90,0.0,0.0,94,0.00,,CLR,0.00,VWS V13.01,2013-10-14 06:32:00,
2013-10-13 23:37:00,39.4,37.8,30.24,East,90,0.0,0.0,94,0.00,,CLR,0.00,VWS V13.01,2013-10-14 06:37:00,
2013-10-13 23:42:00,39.4,37.8,30.24,ENE,68,0.0,0.0,94,0.00,,CLR,0.00,VWS V13.01,2013-10-14 06:42:00,
2013-10-13 23:47:00,39.4,37.8,30.24,East,90,0.0,0.0,94,0.00,,CLR,0.00,VWS V13.01,2013-10-14 06:47:00,
2013-10-13 23:52:00,39.4,37.8,30.24,ENE,68,0.0,0.0,94,0.00,,CLR,0.00,VWS V13.01,2013-10-14 06:52:00,
2013-10-13 23:57:00,39.4,37.8,30.24,SSE,158,0.0,0.0,94,0.00,,CLR,0.00,VWS V13.01,2013-10-14 06:57:00,